{"data":{"norad_id":63795,"intl_designator":"2025-091W","name":"STARLINK-33867","alt_names":[],"object_type":"PAYLOAD","status":"ACTIVE","operator":null,"country":"US","launch_date":"2025-05-02","launch_site_code":"AFETR","launch_vehicle":null,"mission":null,"orbit_class":"UNKNOWN","rcs_meters":null,"size_class":null,"mass_kg":null,"dimensions":null,"purposes":["comms"],"wikipedia_slug":null,"has_3d_model":false,"image_url":null,"decayed_at":null,"tle_current":{"epoch":"2026-09-20T08:49:10.413696Z","epoch_age_seconds":161349,"freshness":"FRESH","line1":"1 63795U 25091W   26263.36748164  .00016312  00000+0  60084-3 0  9998","line2":"2 63795  43.0008  33.2560 0001044 259.4318 100.6416 15.27587964 78677","mean_motion":15.27587964,"eccentricity":0.0001044,"inclination_deg":43.0008,"raan_deg":33.256,"arg_perigee_deg":259.4318,"mean_anomaly_deg":100.6416,"bstar":0.00060084,"rev_number":7867,"period_min":94.266257258885,"perigee_km":482.30894372342,"apogee_km":483.74155440103,"semimajor_km":6861.1622490622,"source":"CELESTRAK","updated_at":"2026-09-21T09:00:35.101929Z"}}}